• In Germany
  • List of Countries
  • For 7 days
  • Water Temperature
  • Satellite Maps
  • Weather Map
  • Weather Widgets
  • user-avatar
    Login

    Hourly Weather Uakit

    Today, 16 July, Monday

    Time Temperature Precipitation Wind Pressure Humidity
    00:00 +15°C° 0 mm 1 mps 658 mmHg 83%
    01:00 +15°C° 0 mm 1 mps 658 mmHg 85%
    02:00 +14°C° 0 mm 1 mps 658 mmHg 87%
    03:00 +14°C° 0.1 mm 1 mps 658 mmHg 88%
    04:00 +15°C° 0.1 mm 1 mps 659 mmHg 89%
    05:00 +15°C° 0.1 mm 1 mps 659 mmHg 89%
    06:00 +16°C° 0.1 mm 1 mps 659 mmHg 84%
    07:00 +18°C° 0.1 mm 2 mps 659 mmHg 78%
    08:00 +20°C° 0 mm 2 mps 660 mmHg 73%
    09:00 +21°C° 0.5 mm 2 mps 660 mmHg 68%
    10:00 +23°C° 0.5 mm 2 mps 660 mmHg 63%
    11:00 +24°C° 0.5 mm 3 mps 660 mmHg 57%
    12:00 +24°C° 1.2 mm 3 mps 659 mmHg 56%
    13:00 +25°C° 1.2 mm 3 mps 659 mmHg 56%
    14:00 +25°C° 0 mm 3 mps 659 mmHg 55%
    15:00 +25°C° 1 mm 3 mps 659 mmHg 56%
    16:00 +24°C° 1 mm 3 mps 659 mmHg 56%
    17:00 +24°C° 1 mm 2 mps 659 mmHg 56%
    18:00 +23°C° 1 mm 2 mps 658 mmHg 63%
    19:00 +22°C° 1 mm 1 mps 658 mmHg 70%
    20:00 +21°C° 1 mm 1 mps 658 mmHg 76%
    21:00 +20°C° 0.7 mm 1 mps 658 mmHg 79%
    22:00 +19°C° 0.7 mm 1 mps 658 mmHg 82%
    23:00 +16°C° 0.7 mm 1 mps 658 mmHg 85%

    Tomorrow, 17 July, Tuesday

    Time Temperature Precipitation Wind Pressure Humidity
    00:00 +16°C° 0.2 mm 1 mps 658 mmHg 86%
    01:00 +15°C° 0.2 mm 0 mps 658 mmHg 87%
    02:00 +15°C° 0.2 mm 0 mps 658 mmHg 88%
    03:00 +15°C° 0.2 mm 0 mps 658 mmHg 89%
    04:00 +15°C° 0.2 mm 0 mps 658 mmHg 89%
    05:00 +15°C° 0.2 mm 0 mps 658 mmHg 89%
    06:00 +16°C° 0.2 mm 0 mps 658 mmHg 84%
    07:00 +19°C° 0.2 mm 1 mps 659 mmHg 78%
    08:00 +21°C° 0.2 mm 1 mps 659 mmHg 72%
    09:00 +22°C° 0.6 mm 1 mps 659 mmHg 68%
    10:00 +23°C° 0.6 mm 1 mps 659 mmHg 63%
    11:00 +24°C° 0.6 mm 1 mps 659 mmHg 59%
    12:00 +24°C° 0.9 mm 1 mps 659 mmHg 58%
    13:00 +24°C° 0.9 mm 2 mps 659 mmHg 56%
    14:00 +25°C° 0.9 mm 2 mps 659 mmHg 55%
    15:00 +24°C° 1.1 mm 2 mps 659 mmHg 56%
    16:00 +24°C° 1.1 mm 2 mps 659 mmHg 58%
    17:00 +24°C° 1.1 mm 3 mps 659 mmHg 59%
    18:00 +23°C° 0.5 mm 2 mps 659 mmHg 63%
    19:00 +21°C° 0.5 mm 2 mps 659 mmHg 67%
    20:00 +20°C° 0.5 mm 2 mps 659 mmHg 72%
    21:00 +18°C° 0.1 mm 2 mps 659 mmHg 74%
    22:00 +17°C° 0.1 mm 2 mps 659 mmHg 76%
    23:00 +16°C° 0.1 mm 2 mps 659 mmHg 79%

    Day after tomorrow, 18 July, Wednesday

    Time Temperature Precipitation Wind Pressure Humidity
    00:00 +15°C° 0 mm 2 mps 659 mmHg 79%
    01:00 +15°C° 0 mm 2 mps 659 mmHg 80%
    02:00 +14°C° 0 mm 2 mps 659 mmHg 80%
    03:00 +14°C° 0 mm 2 mps 659 mmHg 79%
    04:00 +14°C° 0 mm 2 mps 659 mmHg 79%
    05:00 +14°C° 0 mm 2 mps 659 mmHg 78%
    06:00 +15°C° 0 mm 2 mps 659 mmHg 73%
    07:00 +17°C° 0 mm 2 mps 660 mmHg 67%
    08:00 +18°C° 0 mm 2 mps 660 mmHg 61%
    09:00 +19°C° 0 mm 2 mps 660 mmHg 57%
    10:00 +20°C° 0 mm 2 mps 661 mmHg 54%
    11:00 +23°C° 0 mm 1 mps 661 mmHg 51%
    12:00 +23°C° 0 mm 2 mps 661 mmHg 51%
    13:00 +23°C° 0 mm 2 mps 661 mmHg 51%
    14:00 +24°C° 0 mm 2 mps 661 mmHg 51%
    15:00 +24°C° 0.3 mm 2 mps 661 mmHg 53%
    16:00 +24°C° 0.3 mm 2 mps 661 mmHg 55%
    17:00 +23°C° 0.3 mm 2 mps 660 mmHg 57%
    18:00 +21°C° 0.3 mm 2 mps 660 mmHg 64%
    19:00 +20°C° 0.3 mm 2 mps 660 mmHg 71%
    20:00 +19°C° 0.3 mm 2 mps 660 mmHg 78%
    21:00 +18°C° 0.1 mm 2 mps 660 mmHg 82%
    22:00 +16°C° 0.1 mm 2 mps 660 mmHg 87%
    23:00 +15°C° 0.1 mm 2 mps 660 mmHg 92%

    19 July, Thursday

    Time Temperature Precipitation Wind Pressure Humidity
    00:00 +15°C° 0.1 mm 1 mps 660 mmHg 93%
    01:00 +15°C° 0.1 mm 1 mps 660 mmHg 93%
    02:00 +15°C° 0.1 mm 1 mps 660 mmHg 94%
    03:00 +15°C° 0.1 mm 1 mps 660 mmHg 94%
    04:00 +14°C° 0.1 mm 2 mps 660 mmHg 94%
    05:00 +14°C° 0.1 mm 2 mps 660 mmHg 94%
    06:00 +15°C° 0 mm 2 mps 660 mmHg 89%
    07:00 +16°C° 0 mm 2 mps 660 mmHg 84%
    08:00 +16°C° 0 mm 2 mps 660 mmHg 79%
    09:00 +17°C° 0 mm 2 mps 660 mmHg 74%
    10:00 +19°C° 0 mm 2 mps 660 mmHg 70%
    11:00 +20°C° 0 mm 2 mps 660 mmHg 66%
    12:00 +20°C° 0 mm 2 mps 660 mmHg 64%
    13:00 +21°C° 0 mm 3 mps 660 mmHg 62%
    14:00 +22°C° 0 mm 3 mps 660 mmHg 59%
    15:00 +22°C° 0.1 mm 3 mps 660 mmHg 59%
    16:00 +24°C° 0.1 mm 2 mps 660 mmHg 58%
    17:00 +24°C° 0.1 mm 2 mps 659 mmHg 57%
    18:00 +23°C° 0.1 mm 2 mps 659 mmHg 62%
    19:00 +21°C° 0.1 mm 2 mps 659 mmHg 68%
    20:00 +21°C° 0.1 mm 1 mps 659 mmHg 73%
    21:00 +20°C° 0 mm 1 mps 659 mmHg 77%
    22:00 +18°C° 0 mm 1 mps 658 mmHg 82%
    23:00 +16°C° 0 mm 1 mps 658 mmHg 87%

    20 July, Friday

    Time Temperature Precipitation Wind Pressure Humidity
    00:00 +15°C° 0 mm 1 mps 658 mmHg 88%
    01:00 +15°C° 0 mm 1 mps 658 mmHg 89%
    02:00 +15°C° 0 mm 1 mps 658 mmHg 90%
    03:00 +15°C° 0 mm 1 mps 658 mmHg 90%
    04:00 +15°C° 0 mm 1 mps 658 mmHg 91%
    05:00 +15°C° 0 mm 1 mps 658 mmHg 91%
    06:00 +16°C° 0 mm 2 mps 658 mmHg 84%
    07:00 +18°C° 0 mm 2 mps 658 mmHg 78%
    08:00 +20°C° 0 mm 2 mps 658 mmHg 71%
    09:00 +21°C° 0 mm 3 mps 658 mmHg 68%
    10:00 +22°C° 0 mm 3 mps 658 mmHg 64%
    11:00 +23°C° 0 mm 4 mps 658 mmHg 60%
    12:00 +23°C° 0.2 mm 4 mps 658 mmHg 60%
    13:00 +23°C° 0.2 mm 5 mps 657 mmHg 60%
    14:00 +23°C° 0.2 mm 5 mps 657 mmHg 59%
    15:00 +23°C° 0.4 mm 5 mps 657 mmHg 61%
    16:00 +23°C° 0.4 mm 5 mps 656 mmHg 63%
    17:00 +23°C° 0.4 mm 5 mps 656 mmHg 65%
    18:00 +22°C° 1.8 mm 4 mps 656 mmHg 72%
    19:00 +20°C° 1.8 mm 3 mps 655 mmHg 79%
    20:00 +19°C° 1.8 mm 2 mps 655 mmHg 86%
    21:00 +18°C° 1.9 mm 2 mps 654 mmHg 89%
    22:00 +18°C° 1.9 mm 2 mps 654 mmHg 91%
    23:00 +17°C° 1.9 mm 2 mps 654 mmHg 94%

    21 July, Saturday

    Time Temperature Precipitation Wind Pressure Humidity
    00:00 +17°C° 0.3 mm 2 mps 654 mmHg 94%
    01:00 +17°C° 0.3 mm 2 mps 653 mmHg 95%
    02:00 +18°C° 0.3 mm 1 mps 653 mmHg 95%
    03:00 +18°C° 0.4 mm 1 mps 653 mmHg 95%
    04:00 +18°C° 0.4 mm 1 mps 652 mmHg 95%
    05:00 +18°C° 0.4 mm 1 mps 652 mmHg 95%
    06:00 +18°C° 0.3 mm 1 mps 652 mmHg 93%
    07:00 +19°C° 0.3 mm 1 mps 652 mmHg 90%
    08:00 +19°C° 0.3 mm 1 mps 651 mmHg 88%
    09:00 +21°C° 0.2 mm 1 mps 652 mmHg 79%
    10:00 +21°C° 0.2 mm 2 mps 652 mmHg 71%
    11:00 +22°C° 0.2 mm 3 mps 652 mmHg 63%
    12:00 +24°C° 0.5 mm 3 mps 652 mmHg 59%
    13:00 +24°C° 0.5 mm 3 mps 652 mmHg 55%
    14:00 +25°C° 0.5 mm 4 mps 652 mmHg 51%
    15:00 +25°C° 0.4 mm 4 mps 652 mmHg 51%
    16:00 +25°C° 0.4 mm 4 mps 652 mmHg 51%
    17:00 +23°C° 0.4 mm 4 mps 652 mmHg 51%
    18:00 +22°C° 0.3 mm 3 mps 652 mmHg 57%
    19:00 +21°C° 0.3 mm 3 mps 652 mmHg 63%
    20:00 +19°C° 0.3 mm 3 mps 652 mmHg 69%
    21:00 +18°C° 0.1 mm 2 mps 652 mmHg 73%
    22:00 +17°C° 0.1 mm 2 mps 652 mmHg 77%
    23:00 +16°C° 0.1 mm 2 mps 652 mmHg 81%
    Show more